[[{"header":{"parameterUnit":"m.s-1","parameterCategory":2,"la1":30.2992,"la2":30.254,"lo1":-89.0895,"lo2":-89.0443,"dy":0.0025,"dx":0.0025,"nx":19,"ny":19,"refTime":"2026-03-08T21:00:00:Z","depth":"0","parameterNumber":2,"parameterNumberName":"U-component_of_CURRENTS"},"data":[0,0,0,0.2054,0.2056,0.2111,0.2111,0.2168,0.2169,0,0,0,0,0,0,0,0,0,0,0,0.2031,0.2031,0.2054,0.2056,0.2111,0.2111,0.2168,0.2169,0,0,0,0,0,0,0,0,0,0,0,0.2031,0.2031,0.2032,0.2056,0.2111,0.2111,0.2168,0.2128,0,0,0,0,0,0,0,0,0,0,0.2075,0.2052,0.2031,0.2032,0.2056,0.2111,0.2111,0.2126,0.213,0.2142,0,0.2156,0,0.217,0.2173,0.2174,0,0,0,0.2048,0.2048,0.2072,0.2032,0.2057,0.211,0.2084,0.2129,0.2134,0.2148,0.2156,0.2159,0.2171,0.2174,0.2174,0.2247,0.2247,0,0,0.2045,0.2031,0.2069,0.2076,0.2078,0.2082,0.2085,0.2132,0.2134,0.2157,0.216,0.2172,0.2174,0.2175,0.2246,0.2247,0,0,0,0.2041,0.2029,0.2052,0.2073,0.2088,0.2084,0.2088,0.2131,0.2142,0.2161,0.2172,0.2175,0.2175,0.2246,0.2247,0.2235,0,0,0,0.2039,0.2028,0.205,0.2041,0.2087,0.2111,0.2086,0.2138,0.2144,0.2172,0.2175,0.2176,0.2246,0.2246,0.2235,0.2329,0,0,0,0.2027,0.2026,0.2037,0.2041,0.207,0.211,0.2123,0.214,0.2152,0.2174,0.2176,0.2246,0.2246,0.2235,0.2326,0.2432,0,0,0,0.2005,0.2006,0.2036,0.2046,0.207,0.211,0.2123,0.216,0.2181,0.2175,0.2246,0.2247,0.2234,0.2323,0.2428,0.242,0.2436,0,0,0.1989,0.2004,0.2011,0.204,0.206,0.2101,0.2127,0.2166,0.2195,0.2228,0.2229,0.2235,0.2325,0.2431,0.2463,0.2478,0,0,0,0.1996,0.1993,0.201,0.203,0.2076,0.2131,0.2153,0.2181,0.2227,0.2213,0.2254,0.2314,0.238,0.2366,0.2378,0.2381,0.225,0.225,0.225,0.1939,0.1968,0.1988,0.2027,0.2065,0.2142,0.2207,0.2255,0.2229,0.2258,0.2313,0.2413,0.2392,0.2403,0.2402,0.2272,0.2272,0.2272,0.2272,0.1945,0.1993,0.2002,0.2032,0.2095,0.2136,0.2251,0.2273,0.2399,0.2336,0.2397,0.2367,0.2415,0.2411,0.2271,0.2271,0.2271,0.2271,0.2271,0.1993,0.2021,0.2012,0.206,0.2122,0.2189,0.2322,0.241,0.246,0.2533,0.256,0.2559,0.2558,0.2548,0.2549,0.255,0.255,0.2551,0.2551,0.2076,0.2065,0.2069,0.2118,0.2138,0.2237,0.2412,0.2501,0.2626,0.2645,0.2644,0.2601,0.25,0.2492,0.2564,0.2562,0.256,0.2559,0.2558,0.2152,0.2127,0.2131,0.2129,0.2168,0.2204,0.2392,0.2561,0.2717,0.2768,0.2767,0.2705,0.2746,0.2734,0.2734,0.2866,0.2866,0.2866,0.2866,0.2178,0.2183,0.2098,0.2067,0.2102,0.216,0.2236,0.2461,0.2732,0.2852,0.2895,0.2767,0.2754,0.2789,0.2776,0.2774,0.2914,0.2914,0.2914,0.217,0.2143,0.205,0.1996,0.2006,0.2043,0.2066,0.2268,0.2709,0.2917,0.2909,0.2907,0.2713,0.2693,0.2734,0.2716,0.2707,0,0]},{"header":{"parameterUnit":"m.s-1","parameterCategory":2,"la1":30.2992,"la2":30.254,"lo1":-89.0895,"lo2":-89.0443,"dy":0.0025,"dx":0.0025,"nx":19,"ny":19,"refTime":"2026-03-08T21:00:00:Z","depth":"0","parameterNumber":3,"parameterNumberName":"V-component_of_CURRENTS"},"data":[0,0,0,0.0048,0.0048,-0.0005,-0.0005,-0.008,-0.0081,0,0,0,0,0,0,0,0,0,0,0,0.0072,0.0072,0.0049,0.0047,-0.0005,-0.0005,-0.008,-0.0081,0,0,0,0,0,0,0,0,0,0,0,0.0072,0.0072,0.0072,0.0047,-0.0005,-0.0005,-0.008,-0.004,0,0,0,0,0,0,0,0,0,0,0.0011,0.0042,0.0072,0.0072,0.0047,-0.0005,-0.0005,-0.0038,-0.0042,-0.0056,0,-0.0056,0,-0.007,-0.0085,-0.0086,0,0,0,0.0041,0.0046,0.0026,0.0072,0.0047,-0.0005,0.0017,-0.004,-0.0045,-0.0062,-0.0058,-0.0061,-0.0071,-0.0086,-0.0086,-0.0069,-0.0068,0,0,0.0044,0.0064,0.003,0.0024,0.0043,0.0019,0.0015,-0.0043,-0.0041,-0.0058,-0.0063,-0.0073,-0.0086,-0.0087,-0.0069,-0.0068,0,0,0,0.0057,0.0067,0.0048,0.0027,0.0018,0.0017,0.0013,-0.0039,-0.0046,-0.0063,-0.0074,-0.0087,-0.0087,-0.007,-0.0069,0.0056,0,0,0,0.0058,0.0074,0.005,0.0062,0.002,-0.0009,0.002,-0.0042,-0.0049,-0.0073,-0.0087,-0.0088,-0.0071,-0.0069,0.0051,0.0174,0,0,0,0.0073,0.0075,0.0071,0.0063,0.0042,-0.0008,-0.0019,-0.0044,-0.0055,-0.0086,-0.0088,-0.0071,-0.007,0.0046,0.0164,0.0297,0,0,0,0.0091,0.0134,0.0072,0.0119,0.0042,0.0064,-0.0019,-0.0017,-0.0032,-0.0087,-0.0071,-0.0069,0.0045,0.0157,0.029,0.0407,0.045,0,0,0.0165,0.0143,0.0173,0.0117,0.0161,0.007,0.0121,0.0054,-0.0014,-0.0055,-0.0055,0.0053,0.0163,0.0295,0.0503,0.0544,0,0,0,0.021,0.0226,0.0232,0.0234,0.0218,0.0221,0.0141,0.0114,0.0078,-0.0017,0.0052,0.0119,0.0198,0.0252,0.0285,0.0085,-0.0061,-0.0061,-0.0062,0.0341,0.0317,0.0374,0.0347,0.0356,0.0316,0.0328,0.0272,0.0168,0.0175,0.0216,0.0407,0.0463,0.0489,0.028,0.0175,0.0176,0.0176,0.0176,0.0487,0.0566,0.0486,0.0534,0.0507,0.0538,0.0503,0.0446,0.0482,0.0344,0.0413,0.0377,0.0533,0.0296,0.0184,0.0183,0.0182,0.0181,0.0181,0.065,0.0696,0.0659,0.0717,0.076,0.0727,0.086,0.0776,0.0657,0.0708,0.0767,0.0765,0.0566,0.0732,0.0733,0.0734,0.0735,0.0736,0.0737,0.0892,0.0852,0.0933,0.0952,0.1009,0.1101,0.1112,0.1142,0.1099,0.0979,0.0978,0.0622,0.0578,0.0566,0.0754,0.0751,0.0749,0.0747,0.0746,0.1183,0.1141,0.1257,0.1309,0.1427,0.1557,0.1552,0.158,0.1571,0.1563,0.1033,0.1112,0.1106,0.1078,0.1078,0.1388,0.1388,0.1388,0.1389,0.1394,0.1383,0.1508,0.1613,0.1761,0.1774,0.1963,0.1918,0.1577,0.1352,0.118,0.1007,0.099,0.0962,0.0936,0.0927,0.1192,0.1191,0.119,0.1577,0.1572,0.1684,0.1721,0.1871,0.1971,0.2087,0.2077,0.1549,0.1151,0.0883,0.0891,0.0593,0.0582,0.0491,0.0472,0.0439,0,0]}],[{"header":{"parameterUnit":"m.s-1","parameterCategory":2,"la1":30.2992,"la2":30.254,"lo1":-89.0895,"lo2":-89.0443,"dy":0.0025,"dx":0.0025,"nx":19,"ny":19,"refTime":"2026-03-08T21:00:00:Z","depth":"2","parameterNumber":2,"parameterNumberName":"U-component_of_CURRENTS"},"data":[0,0,0,0.1879,0.1881,0.196,0.196,0.1978,0.1978,0,0,0,0,0,0,0,0,0,0,0,0.1832,0.1833,0.1879,0.1881,0.196,0.196,0.1978,0.1978,0,0,0,0,0,0,0,0,0,0,0,0.1832,0.1832,0.1833,0.1881,0.196,0.196,0.1978,0.1938,0,0,0,0,0,0,0,0,0,0,0.1871,0.1846,0.1832,0.1833,0.1882,0.196,0.196,0.1937,0.194,0.192,0,0.1925,0,0.1961,0.1978,0.1978,0,0,0,0.1876,0.1843,0.1864,0.1833,0.1883,0.196,0.1923,0.1939,0.1943,0.1924,0.1926,0.1928,0.1961,0.1978,0.1978,0.2018,0.2018,0,0,0.1871,0.1848,0.1862,0.1866,0.1892,0.192,0.1925,0.1943,0.194,0.1926,0.1929,0.1962,0.1978,0.1978,0.2017,0.2018,0,0,0,0.1862,0.1845,0.1867,0.1864,0.1891,0.1923,0.1929,0.1939,0.1946,0.1929,0.1962,0.1978,0.1978,0.2017,0.2017,0.2041,0,0,0,0.186,0.1841,0.1865,0.1852,0.1891,0.193,0.1924,0.1944,0.1948,0.1962,0.1978,0.1978,0.2016,0.2017,0.2039,0.2075,0,0,0,0.1831,0.1838,0.1844,0.1851,0.189,0.1931,0.1939,0.1946,0.1968,0.1978,0.1978,0.2016,0.2017,0.2037,0.2071,0.2168,0,0,0,0.181,0.1806,0.1843,0.185,0.1889,0.1929,0.194,0.1964,0.1971,0.1978,0.2016,0.2017,0.2037,0.2069,0.2165,0.2082,0.209,0,0,0.1793,0.1804,0.181,0.1845,0.1875,0.1919,0.1962,0.1974,0.1984,0.2002,0.2004,0.204,0.2071,0.2167,0.2145,0.2151,0,0,0,0.1797,0.1802,0.1814,0.1847,0.1884,0.1946,0.1971,0.1997,0.2037,0.1997,0.2055,0.2075,0.2135,0.2078,0.2084,0.2022,0.2022,0.2022,0.2022,0.1751,0.1786,0.1804,0.1854,0.1886,0.1962,0.2013,0.206,0.2043,0.2077,0.2105,0.221,0.2147,0.2151,0.2103,0.2103,0.2104,0.2104,0.2104,0.1745,0.1783,0.1815,0.1847,0.1915,0.1963,0.2065,0.2091,0.2197,0.2152,0.2208,0.2117,0.2158,0.2106,0.2106,0.2105,0.2105,0.2105,0.2105,0.1759,0.1786,0.1787,0.1845,0.1916,0.1996,0.2114,0.2194,0.2239,0.2295,0.2278,0.2276,0.2254,0.2337,0.2338,0.2338,0.2339,0.2339,0.2339,0.1787,0.1791,0.1826,0.1873,0.191,0.2017,0.2172,0.2243,0.2323,0.233,0.2329,0.2291,0.2283,0.227,0.2348,0.2347,0.2346,0.2345,0.2344,0.1772,0.1804,0.1844,0.187,0.1952,0.1963,0.2145,0.2245,0.2365,0.2377,0.2359,0.2356,0.2359,0.2352,0.2341,0.2435,0.2435,0.2435,0.2435,0.1754,0.1786,0.1795,0.1818,0.1882,0.1924,0.1935,0.2031,0.219,0.2235,0.2243,0.2124,0.2125,0.2109,0.2107,0.2089,0.2117,0.2116,0.2116,0.1668,0.1721,0.1656,0.1722,0.178,0.18,0.1717,0.1717,0.1894,0.2101,0.2161,0.2419,0.226,0.2256,0.2241,0.2235,0.221,0,0]},{"header":{"parameterUnit":"m.s-1","parameterCategory":2,"la1":30.2992,"la2":30.254,"lo1":-89.0895,"lo2":-89.0443,"dy":0.0025,"dx":0.0025,"nx":19,"ny":19,"refTime":"2026-03-08T21:00:00:Z","depth":"2","parameterNumber":3,"parameterNumberName":"V-component_of_CURRENTS"},"data":[0,0,0,0.0055,0.0054,-0.0018,-0.0019,-0.0086,-0.0087,0,0,0,0,0,0,0,0,0,0,0,0.0085,0.0085,0.0055,0.0054,-0.0018,-0.0019,-0.0086,-0.0087,0,0,0,0,0,0,0,0,0,0,0,0.0085,0.0085,0.0085,0.0054,-0.0018,-0.0019,-0.0086,-0.0042,0,0,0,0,0,0,0,0,0,0,0.0024,0.0048,0.0085,0.0085,0.0053,-0.0018,-0.0019,-0.004,-0.0044,-0.0042,0,-0.004,0,-0.006,-0.0089,-0.0089,0,0,0,0.0039,0.0052,0.004,0.0085,0.0053,-0.0018,0.001,-0.0043,-0.0048,-0.0048,-0.0041,-0.0044,-0.0061,-0.0089,-0.009,-0.0087,-0.0086,0,0,0.0043,0.006,0.0044,0.0038,0.0052,0.0012,0.0008,-0.0046,-0.0047,-0.0041,-0.0046,-0.0062,-0.009,-0.009,-0.0087,-0.0087,0,0,0,0.0064,0.0063,0.0052,0.0041,0.0029,0.0011,0.0006,-0.0046,-0.0046,-0.0047,-0.0063,-0.009,-0.009,-0.0087,-0.0087,0.0003,0,0,0,0.0066,0.0077,0.0054,0.0062,0.003,-0.0014,0.0008,-0.0043,-0.005,-0.0062,-0.009,-0.0091,-0.0088,-0.0087,-0.0,0.0045,0,0,0,0.0085,0.0078,0.0077,0.0063,0.0039,-0.0014,-0.0019,-0.0045,-0.0058,-0.0089,-0.0091,-0.0088,-0.0087,-0.0003,0.004,0.0076,0,0,0,0.0094,0.0112,0.0078,0.0093,0.004,0.0036,-0.0019,-0.0037,-0.0058,-0.009,-0.0088,-0.0087,-0.0004,0.0037,0.0073,0.0076,0.0091,0,0,0.0125,0.0116,0.0126,0.0095,0.0113,0.0043,0.0058,0.0003,-0.0047,-0.0072,-0.0072,0.0001,0.004,0.0076,0.012,0.0134,0,0,0,0.0142,0.0153,0.0153,0.0152,0.0133,0.0124,0.0063,0.0038,0.0005,-0.0053,-0.0009,0.0013,0.0033,0.0027,0.0038,-0.0083,-0.0083,-0.0083,-0.0083,0.0193,0.0189,0.0215,0.0212,0.0212,0.0176,0.0166,0.0119,0.0064,0.0062,0.0079,0.0159,0.0153,0.0162,0.0066,0.0066,0.0067,0.0067,0.0067,0.0242,0.0244,0.0263,0.0286,0.0284,0.0293,0.0264,0.0228,0.0213,0.015,0.0165,0.0113,0.018,0.0074,0.0073,0.0072,0.0071,0.007,0.007,0.025,0.0251,0.0278,0.0317,0.0372,0.0371,0.0424,0.0382,0.0302,0.0317,0.0281,0.0279,0.0217,0.0317,0.0317,0.0318,0.0318,0.0318,0.0319,0.0225,0.0256,0.0288,0.0353,0.0407,0.0488,0.0518,0.0512,0.045,0.0382,0.0381,0.0242,0.0234,0.023,0.0324,0.0323,0.0323,0.0322,0.0322,0.0168,0.0195,0.0263,0.032,0.0469,0.0598,0.0638,0.0633,0.0601,0.0564,0.0409,0.0405,0.0374,0.0363,0.0361,0.0483,0.0483,0.0483,0.0483,0.0109,0.0133,0.0236,0.0346,0.0489,0.0638,0.0745,0.0743,0.0628,0.0537,0.0534,0.0482,0.0474,0.0444,0.0431,0.0428,0.0569,0.0569,0.0569,0.0033,0.0109,0.0167,0.0316,0.05,0.0671,0.0798,0.0838,0.0667,0.0573,0.0555,0.0488,0.04,0.0392,0.0332,0.0317,0.0307,0,0]}],[{"header":{"parameterUnit":"m.s-1","parameterCategory":2,"la1":30.2992,"la2":30.254,"lo1":-89.0895,"lo2":-89.0443,"dy":0.0025,"dx":0.0025,"nx":19,"ny":19,"refTime":"2026-03-08T21:00:00:Z","depth":"4","parameterNumber":2,"parameterNumberName":"U-component_of_CURRENTS"},"data":[0,0,0,0.1161,0.1164,0.1307,0.1308,0.1432,0.1433,0,0,0,0,0,0,0,0,0,0,0,0.1117,0.1118,0.1161,0.1164,0.1307,0.1308,0.1432,0.1433,0,0,0,0,0,0,0,0,0,0,0,0.1116,0.1117,0.1119,0.1165,0.1307,0.1308,0.1432,0.1339,0,0,0,0,0,0,0,0,0,0,0.1208,0.1179,0.1117,0.1119,0.1166,0.1307,0.1308,0.1335,0.1345,0.135,0,0.1382,0,0.1407,0.144,0.144,0,0,0,0.1166,0.1171,0.1204,0.1119,0.1167,0.1306,0.1243,0.1341,0.1352,0.1363,0.1384,0.1389,0.1409,0.1441,0.1441,0.1571,0.1572,0,0,0.1158,0.1146,0.1197,0.1211,0.1215,0.1238,0.1247,0.1348,0.1366,0.1384,0.1392,0.1411,0.1441,0.1442,0.157,0.1571,0,0,0,0.1134,0.114,0.1173,0.1206,0.1235,0.1243,0.1253,0.1361,0.1371,0.1393,0.1413,0.1442,0.1443,0.157,0.1571,0.1618,0,0,0,0.113,0.1126,0.1169,0.1164,0.1234,0.1309,0.1264,0.1365,0.1377,0.1412,0.1442,0.1444,0.1569,0.157,0.1615,0.1623,0,0,0,0.1108,0.1124,0.1143,0.1163,0.1223,0.1308,0.1325,0.1368,0.1388,0.1441,0.1445,0.1568,0.157,0.1613,0.1619,0.166,0,0,0,0.1086,0.1131,0.1143,0.1203,0.1221,0.1313,0.1325,0.1404,0.1453,0.1443,0.1569,0.157,0.1612,0.1617,0.1657,0.1441,0,0,0,0.1126,0.1136,0.117,0.1184,0.1264,0.1292,0.1389,0.1458,0.1476,0.153,0.1534,0.1616,0.1619,0.1659,0.1535,0,0,0,0,0.1171,0.1194,0.1223,0.1275,0.1334,0.14,0.1464,0.15,0.1581,0.1512,0.1635,0.1635,0.1659,0.1526,0.1578,0.1578,0.1578,0.1577,0.1577,0.119,0.1224,0.128,0.1332,0.1393,0.1485,0.1547,0.1607,0.162,0.1669,0.1688,0.1768,0.1632,0.171,0.1711,0.1711,0.1711,0.1711,0.1711,0.1219,0.1223,0.1302,0.1367,0.144,0.1524,0.1635,0.1673,0.1768,0.1753,0.1774,0.1603,0.1716,0.1715,0.1715,0.1714,0.1714,0.1713,0.1713,0.1166,0.117,0.1241,0.1332,0.1439,0.1547,0.1636,0.1733,0.1803,0.1842,0.1709,0.1804,0.1783,0.1864,0.1864,0.1865,0.1865,0.1865,0.1865,0.1055,0.1125,0.1168,0.1291,0.1356,0.1473,0.1645,0.1705,0.1804,0.1736,0.1862,0.1819,0.1814,0.1792,0.1869,0.1868,0.1868,0.1867,0.1867,0.0944,0.0989,0.1041,0.1106,0.126,0.1338,0.1531,0.1617,0.167,0.1663,0.1678,0.1687,0.1647,0.1647,0.1617,0.1644,0.1642,0.1639,0,0.0846,0.0879,0.0933,0.1003,0.1082,0.1247,0.1284,0.1399,0.1501,0.1446,0.1661,0.1674,0.168,0.1631,0.1626,0.1588,0,0,0,0.0777,0.0809,0.0816,0.0913,0.0998,0.1126,0.1288,0.128,0.1486,0.1488,0.1577,0.1593,0.1756,0.188,0.184,0.1834,0.1796,0,0]},{"header":{"parameterUnit":"m.s-1","parameterCategory":2,"la1":30.2992,"la2":30.254,"lo1":-89.0895,"lo2":-89.0443,"dy":0.0025,"dx":0.0025,"nx":19,"ny":19,"refTime":"2026-03-08T21:00:00:Z","depth":"4","parameterNumber":3,"parameterNumberName":"V-component_of_CURRENTS"},"data":[0,0,0,0.016,0.016,0.0115,0.0114,0.0046,0.0045,0,0,0,0,0,0,0,0,0,0,0,0.0175,0.0174,0.016,0.0159,0.0115,0.0114,0.0046,0.0045,0,0,0,0,0,0,0,0,0,0,0,0.0175,0.0174,0.0174,0.0159,0.0115,0.0114,0.0046,0.008,0,0,0,0,0,0,0,0,0,0,0.0124,0.0138,0.0175,0.0174,0.0159,0.0115,0.0114,0.0082,0.0078,0.0066,0,0.0065,0,0.0058,0.0041,0.0041,0,0,0,0.0149,0.0141,0.0136,0.0174,0.0159,0.0115,0.0132,0.008,0.0075,0.0061,0.0064,0.0062,0.0057,0.0041,0.0041,0.0005,0.0006,0,0,0.0152,0.0157,0.0139,0.0134,0.0155,0.0133,0.0131,0.0077,0.0072,0.0064,0.006,0.0056,0.0041,0.004,0.0005,0.0005,0,0,0,0.0166,0.0159,0.0155,0.0136,0.0132,0.0132,0.0129,0.0074,0.0074,0.0059,0.0055,0.004,0.004,0.0005,0.0005,0.0062,0,0,0,0.0167,0.0168,0.0156,0.0157,0.0133,0.0103,0.0127,0.0078,0.0072,0.0056,0.004,0.0039,0.0005,0.0005,0.006,0.0088,0,0,0,0.0175,0.0168,0.0167,0.0158,0.0144,0.0104,0.01,0.0076,0.007,0.0041,0.0039,0.0005,0.0005,0.0059,0.0085,0.0075,0,0,0,0.0177,0.0175,0.0167,0.0163,0.0145,0.0131,0.0101,0.0079,0.0057,0.004,0.0005,0.0005,0.0058,0.0083,0.0073,0.0098,0,0,0,0.0177,0.0175,0.0173,0.0166,0.0169,0.0136,0.0132,0.0089,0.0054,0.002,0.0019,0.0061,0.0084,0.0074,0.0105,0,0,0,0,0.0175,0.018,0.0177,0.0177,0.0163,0.0162,0.0121,0.0101,0.0069,0.0044,0.0047,0.006,0.0052,0.0062,0.0006,0.0006,0.0006,0.0006,0.0006,0.0181,0.0185,0.0193,0.02,0.0196,0.0175,0.0163,0.0129,0.0092,0.0086,0.0096,0.0115,0.0128,0.0082,0.0082,0.0083,0.0083,0.0083,0.0083,0.0192,0.0181,0.0217,0.0229,0.0236,0.0236,0.0209,0.0186,0.0156,0.013,0.0119,0.011,0.0088,0.0087,0.0087,0.0086,0.0085,0.0085,0.0085,0.0168,0.0162,0.0199,0.0232,0.0268,0.0271,0.0285,0.0255,0.0206,0.0205,0.0178,0.0139,0.0144,0.0187,0.0187,0.0187,0.0187,0.0187,0.0187,0.0104,0.0143,0.0172,0.0225,0.0262,0.0303,0.0318,0.0307,0.0262,0.0241,0.0211,0.0149,0.0145,0.0148,0.0189,0.0188,0.0188,0.0188,0.0188,0.0061,0.0072,0.0127,0.0172,0.0266,0.0312,0.0334,0.0339,0.0314,0.0285,0.0244,0.0241,0.0215,0.021,0.0214,0.0276,0.0276,0.0277,0,0.0021,0.0029,0.0126,0.0208,0.0275,0.0329,0.0348,0.0353,0.0308,0.0308,0.0282,0.0236,0.0234,0.0204,0.02,0.0204,0,0,0,0.0028,0.0055,0.0142,0.0223,0.031,0.0347,0.0368,0.0369,0.0316,0.0323,0.0288,0.0285,0.024,0.0193,0.0145,0.0141,0.0143,0,0]}]]